Flag for Finland

Past Weather in Kittilä, Finland — Yesterday and Last 2 Weeks

Now
57 °F

Sunny.


Feels Like: 56 °F
Forecast: 63 / 51 °F
Wind: 6 mph from South

Location: Kittila

Current Time: Aug 4, 2020 at 11:45:45 pm

Latest Report: Aug 4, 2020 at 10:50 pm


Visibility: 10 mi

Pressure: 29.65 "Hg

Humidity: 94%

Dew Point: 55 °F

Location of KittiläLocation

Past Weather in Kittilä — Graph

°F

Kittilä Temperature Yesterday

Maximum temperature yesterday: 66 °F (at 5:50 pm)
Minimum temperature yesterday: 39 °F (at 3:20 am)
Average temperature yesterday: 55 °F

High & Low Weather Summary for the Past Weeks

 TemperatureHumidityPressure
High73 °F (Jul 21, 2:50 pm)100% (Jul 21, 8:20 pm)30.07 "Hg (Jul 21, 8:20 pm)
Low39 °F (Aug 3, 3:20 am)40% (Aug 4, 1:20 pm)29.47 "Hg (Jul 23, 7:50 am)
Average60 °F75%29.79 "Hg
* Reported Jul 20 10:20 pm — Aug 4 10:20 pm, Kittilä. Weather by CustomWeather, © 2020

Note: Actual official high and low records may vary slightly from our data, if they occured in-between our weather recording intervals... More about our weather records

Kittilä Weather History for the Previous 24 Hours

Scroll right to see more
 ConditionsComfort  
Time TempWeatherWind HumidityBarometerVisibility
10:20 pm
Tue, Aug 4
57 °FSprinkles. Clear.5 mph94%29.62 "HgN/A
9:50 pm59 °FSprinkles. Clear.3 mph88%29.62 "HgN/A
9:20 pm61 °FSunny.3 mph77%29.62 "Hg10 mi
8:50 pm61 °FSunny.9 mph77%29.62 "Hg10 mi
8:20 pm63 °FPassing clouds.7 mph73%29.62 "HgN/A
7:50 pm63 °FPassing clouds.8 mph73%29.62 "HgN/A
7:20 pm64 °FScattered showers. Passing clouds.14 mph68%29.62 "HgN/A
6:50 pm66 °FScattered showers. Passing clouds.12 mph56%29.59 "HgN/A
6:20 pm66 °FSunny.8 mph56%29.59 "Hg10 mi
5:50 pm68 °FSunny.8 mph53%29.59 "Hg10 mi
5:20 pm68 °FSunny.10 mph46%29.59 "Hg10 mi
4:20 pm68 °FSunny.2 mph43%29.59 "Hg10 mi
3:50 pm66 °FPassing clouds.7 mph46%29.59 "HgN/A
3:20 pm68 °FPassing clouds.7 mph40%29.59 "HgN/A
2:50 pm68 °FPassing clouds.6 mph43%29.59 "HgN/A
2:20 pm66 °FPassing clouds.9 mph40%29.59 "HgN/A
1:50 pm66 °FSunny.10 mph46%29.59 "Hg10 mi
1:20 pm68 °FSunny.8 mph40%29.59 "Hg10 mi
12:50 pm66 °FPartly sunny.3 mph49%29.59 "HgN/A
12:20 pm64 °FScattered clouds.6 mph49%29.59 "HgN/A
11:50 am64 °FPassing clouds.5 mph46%29.59 "HgN/A
11:20 am64 °FPassing clouds.7 mph49%29.59 "HgN/A
10:50 am64 °FPassing clouds.5 mph49%29.59 "HgN/A
10:20 am63 °FPassing clouds.5 mph52%29.62 "HgN/A
9:50 am61 °FSunny.2 mph59%29.62 "Hg10 mi
9:20 am59 °FSunny.2 mph63%29.62 "Hg10 mi
8:50 am57 °FSunny.2 mph67%29.62 "Hg10 mi
8:20 am55 °FSunny.1 mph72%29.62 "Hg10 mi
7:50 am52 °FSunny.1 mph77%29.62 "Hg10 mi
7:20 am48 °FSunny.1 mph87%29.62 "Hg10 mi
6:50 am46 °FSunny.1 mph87%29.62 "Hg10 mi
6:20 am43 °FSunny.No wind93%29.62 "Hg10 mi
5:50 am41 °FSunny.1 mph93%29.62 "Hg10 mi
5:20 am41 °FSunny.1 mph93%29.62 "Hg10 mi
4:50 am39 °FSunny.1 mph100%29.62 "Hg10 mi
4:20 am41 °FPassing clouds.1 mph93%29.62 "HgN/A
3:50 am39 °FClear.1 mph100%29.62 "Hg10 mi
2:50 am43 °FQuite cool.1 mph93%29.62 "HgN/A
2:20 am45 °FClear.2 mph93%29.62 "Hg10 mi
1:50 am45 °FClear.1 mph93%29.62 "Hg10 mi
1:20 am46 °FClear.1 mph87%29.59 "Hg10 mi
12:50 am48 °FClear.2 mph87%29.59 "Hg10 mi
12:20 am52 °FClear.1 mph82%29.59 "Hg10 mi
11:50 pm
Mon, Aug 3
54 °FClear.3 mph72%29.59 "Hg10 mi
11:20 pm54 °FClear.1 mph77%29.59 "Hg10 mi
Weather by CustomWeather, © 2020

See weather overview